User: anonymous   Login
Location: ?
(35.4064°N, 139.3593°E)
Time: 06:39:59
(UTC+00:00)
Language:

Cosmos 1420 Rocket - Orbit

View from above orbital plane
View from above orbital plane
View from above satellite
View from above satellite

Ground track
Ground track

The orbit data is extracted from the following two-line orbital elements,

1 13649U 82109B   24164.92684117  .00000461  00000-0  16126-3 0  9998
2 13649  74.0006 345.7979 0019136 263.4054 204.8999 14.37898490178101
Epoch (UTC): 12 June 2024 22:14:39
Eccentricity: 0.0019136
inclination: 74.0006°
perigee height: 752 km
apogee height: 779 km
right ascension of ascending node: 345.7979°
argument of perigee: 263.4054°
revolutions per day: 14.37898490
mean anomaly at epoch: 204.8999°
orbit number at epoch: 17810

The dashed part of the orbit path shows where the satellite is in the earth's shadow,  

DLR